Weather History for Naples, FL

Change the Weather History Date:

Friday, December 21, 2012

  Actual Average Record
Temperature  
Mean Temperature 63 °F 66 °F  
Max Temperature 73 °F 76 °F 87 °F (1948)
Min Temperature 52 °F 56 °F 37 °F (2000)
Degree Days  
Heating Degree Days 2 2  
Month to date heating degree days 2 37  
Since 1 July heating degree days 15 51  
Cooling Degree Days 0 3  
Month to date cooling degree days 141 92  
Year to date cooling degree days 4107 3911  
Growing Degree Days 14 (Base 50)    
Moisture  
Dew Point 52 °F    
Average Humidity 70    
Maximum Humidity 100    
Minimum Humidity 40    
Precipitation  
Precipitation 0.06 in 0.05 in 1.57 in (1994)
Month to date precipitation 1.71 1.01  
Year to date precipitation 37.86 51.45  
Snow  
Snow 0.00 in - - ()
Month to date snowfall 0.0  
Since 1 July snowfall 0.0  
Snow Depth 0.00 in    
Sea Level Pressure  
Sea Level Pressure 30.10 in    
Wind  
Wind Speed 12 mph (NW)    
Max Wind Speed 20 mph    
Max Gust Speed 28 mph    
Visibility 9 miles    
Events Rain    
T = Trace of Precipitation, MM = Missing Value Source: NWS Daily Summary

Daily Weather History Graph

Daily Weather History Graph

Search for Another Location

Airport:

Trip Planner

Search our weather history database for the weather conditions in past years. The results will help you decide how hot, cold, wet, or windy it might be!

Date:

Astronomy

Dec. 21, 2012 Rise Set
Actual Time 7:10 AM EST 5:40 PM EST
Civil Twilight 6:45 AM EST 6:05 PM EST
Nautical Twilight 6:16 AM EST 6:34 PM EST
Astronomical Twilight 5:48 AM EST 7:03 PM EST
Moon 1:05 PM EST 1:19 AM EST
Length of Visible Light 11h 20m
Length of Day
10h 30m
Waxing Gibbous, 64% of the Moon is Illuminated
Dec 21
Waxing Gibbous
Dec 28
Full
Jan 4
Last Quarter
Jan 11
New
Jan 18
First Quarter

Hourly Weather History & Observations

Time (EST) Temp. Dew Point Humidity Pressure Visibility Wind Dir Wind Speed Gust Speed Precip Events Conditions
12:53 AM 73.0 °F 69.1 °F 87% 30.01 in 10.0 mi SSW 9.2 mph - N/A   Mostly Cloudy
1:53 AM 73.0 °F 70.0 °F 90% 29.99 in 10.0 mi SW 10.4 mph - N/A   Partly Cloudy
2:53 AM 73.0 °F 70.0 °F 90% 29.98 in 10.0 mi SSW 10.4 mph - N/A   Partly Cloudy
3:25 AM 71.6 °F 69.8 °F 94% 30.00 in 2.5 mi West 13.8 mph 23.0 mph 0.06 in Rain Rain
3:34 AM 69.8 °F 69.8 °F 100% 30.00 in 6.0 mi West 13.8 mph - 0.06 in Rain Light Rain
3:53 AM 69.1 °F 69.1 °F 100% 30.00 in 8.0 mi WNW 12.7 mph 24.2 mph 0.06 in   Overcast
4:53 AM 69.1 °F 64.0 °F 84% 30.01 in 8.0 mi NW 12.7 mph 20.7 mph N/A   Overcast
5:20 AM 69.8 °F 60.8 °F 73% 30.03 in 9.0 mi NW 13.8 mph 25.3 mph N/A   Overcast
5:53 AM 68.0 °F 60.1 °F 76% 30.04 in 9.0 mi NNW 12.7 mph 24.2 mph N/A   Overcast
6:27 AM 66.2 °F 57.2 °F 73% 30.07 in 9.0 mi NNW 13.8 mph 23.0 mph N/A   Overcast
6:53 AM 64.9 °F 55.0 °F 70% 30.08 in 10.0 mi NNW 13.8 mph 21.9 mph N/A   Overcast
7:53 AM 63.0 °F 53.1 °F 70% 30.10 in 10.0 mi NNW 15.0 mph 20.7 mph N/A   Overcast
8:53 AM 62.1 °F 50.0 °F 65% 30.14 in 10.0 mi NNW 10.4 mph 18.4 mph N/A   Scattered Clouds
9:53 AM 62.1 °F 46.0 °F 56% 30.17 in 10.0 mi NNW 16.1 mph 27.6 mph N/A   Clear
10:53 AM 62.1 °F 46.9 °F 58% 30.16 in 10.0 mi NNW 12.7 mph 24.2 mph N/A   Clear
11:53 AM 63.0 °F 46.0 °F 54% 30.15 in 10.0 mi NNW 16.1 mph 23.0 mph N/A   Clear
12:53 PM 64.9 °F 44.1 °F 47% 30.13 in 10.0 mi NNW 15.0 mph 20.7 mph N/A   Clear
1:53 PM 64.9 °F 42.1 °F 43% 30.12 in 10.0 mi NW 13.8 mph 21.9 mph N/A   Clear
2:53 PM 64.9 °F 42.1 °F 43% 30.11 in 10.0 mi NW 17.3 mph 24.2 mph N/A   Clear
3:53 PM 64.9 °F 39.0 °F 39% 30.12 in 10.0 mi NNW 13.8 mph 20.7 mph N/A   Clear
4:53 PM 63.0 °F 46.0 °F 54% 30.13 in 10.0 mi NW 15.0 mph 23.0 mph N/A   Clear
5:53 PM 60.1 °F 44.1 °F 55% 30.13 in 10.0 mi NNW 9.2 mph 20.7 mph N/A   Clear
6:53 PM 59.0 °F 39.0 °F 48% 30.16 in 10.0 mi NNW 12.7 mph 18.4 mph N/A   Clear
7:53 PM 57.0 °F 43.0 °F 59% 30.17 in 10.0 mi North 8.1 mph - N/A   Clear
8:53 PM 57.0 °F 44.1 °F 62% 30.19 in 10.0 mi North 8.1 mph - N/A   Clear
9:53 PM 55.0 °F 44.1 °F 67% 30.21 in 10.0 mi North 8.1 mph - N/A   Clear
10:53 PM 54.0 °F 43.0 °F 66% 30.21 in 10.0 mi North 6.9 mph - N/A   Clear
11:53 PM 53.1 °F 42.1 °F 66% 30.21 in 10.0 mi North 6.9 mph - N/A   Clear